Location: Piotrkow Trybunalski
(51.4000°N, 19.6830°E)
Time: 15:39:36
(UTC+01:00)

Vanguard 2 - Pass Details

Date: 06 February 2023
Orbit: 553 x 2927 km, 32.9° (Epoch: 24 March)

Event Time Altitude Azimuth Distance (km) Brightness Sun altitude
Rises 00:34:45 0° 261° (W) 6,084 - -53.5°
Reaches altitude 10° 00:38:57 10° 253° (WSW) 5,322 - -53.3°
Maximum altitude 00:52:57 35° 196° (SSW) 4,027 - -52.5°
Drops below altitude 10° 01:07:30 10° 139° (SE) 5,515 - -51.5°
Exits shadow 01:09:29 - 136° (SE) 5,860 11.9 -51.4°
Sets 01:12:00 0° 132° (SE) 6,320 12.1 -51.2°
